Date String (YYYY-MM-DD hh:mm:ss) UTC,Instrument flags,Ambient pressure (hPa),Sample flow (lpm),Bypass flow (lpm),Sample temperature (°C),Ambient temperature (°C),ASC tube jacket temperature (°C),LED temperature (°C),Box temperature (°C),Sample RH (%),Span deviation,Mass concentration (μg/m³),Mass concentration (μg/m³),Mass concentration (μg/m³)
DateTimeUTC,F1_M11,P_M11,Q1_M11,Q2_M11,T1_M11,T2_M11,T3_M11,T4_M11,T5_M11,U1_M11,ZSPAN_M11,X0_M11,X2_M11,X1_M11
2022-12-01 02:00:00,,0821.8,4.99,0.00,22.2,20.6,00.0,31.2,23.9,10.0,-000.3,0025.83,0019.85,0019.17
2022-12-01 02:01:00,,0821.8,5.01,0.00,22.2,20.6,00.0,31.2,23.9,10.1,-000.5,0025.92,0019.99,0019.32
2022-12-01 02:02:00,,0821.7,5.00,0.00,22.2,21.1,00.0,31.1,24.1,10.0,-000.4,0026.04,0020.11,0019.41
2022-12-01 02:03:00,,0821.7,5.00,0.00,22.3,21.9,00.0,31.1,24.3,10.0,-000.4,0025.92,0020.16,0019.47
2022-12-01 02:04:00,,0821.7,5.00,0.00,22.4,22.2,00.0,31.1,24.4,10.0,-000.6,0026.07,0020.25,0019.54
2022-12-01 02:05:00,,0821.6,4.98,0.00,22.4,21.9,00.0,31.2,24.3,10.0,-000.8,0026.43,0020.37,0019.65
2022-12-01 02:06:00,,0821.5,5.00,0.00,22.4,21.7,00.0,31.2,24.3,10.0,-000.3,0027.32,0020.48,0019.75
2022-12-01 02:07:00,,0821.5,5.01,0.00,22.4,21.4,00.0,31.3,24.2,10.0,-000.1,0026.74,0020.56,0019.85
2022-12-01 02:08:00,,0821.6,5.00,0.00,22.4,21.2,00.0,31.3,24.2,10.0,0000.0,0026.34,0020.62,0019.92
2022-12-01 02:09:00,,0821.6,4.99,0.00,22.3,21.0,00.0,31.3,24.1,10.0,0000.1,0026.74,0020.71,0019.99
2022-12-01 02:10:00,,0821.6,4.99,0.00,22.3,20.9,00.0,31.3,24.1,10.1,0000.2,0026.96,0020.72,0020.00
2022-12-01 02:11:00,,0821.6,5.01,0.00,22.3,20.9,00.0,31.2,24.0,10.2,0000.1,0027.09,0020.73,0020.00
2022-12-01 02:12:00,,0821.5,5.01,0.00,22.2,20.8,00.0,31.2,24.0,10.2,0000.2,0027.29,0020.84,0020.06
2022-12-01 02:13:00,,0821.5,5.00,0.00,22.2,20.7,00.0,31.2,24.0,10.3,-000.1,0027.62,0020.71,0019.93
2022-12-01 02:14:00,,0821.5,4.99,0.00,22.2,20.7,00.0,31.2,23.9,10.4,0000.3,0027.41,0020.35,0019.59
2022-12-01 02:15:00,,0821.5,4.99,0.00,22.2,20.7,00.0,31.2,23.8,10.5,0000.2,0027.15,0020.10,0019.35
2022-12-01 02:16:00,,0821.5,5.00,0.00,22.1,20.6,00.0,31.2,23.9,10.5,0000.5,0026.84,0019.88,0019.15
2022-12-01 02:17:00,,0821.5,5.00,0.00,22.1,20.6,00.0,31.2,23.9,10.5,0000.3,0025.79,0019.52,0018.82
2022-12-01 02:18:00,,0821.5,5.01,0.00,22.1,20.5,00.0,31.2,23.9,10.5,0000.5,0024.68,0019.11,0018.44
2022-12-01 02:19:00,,0821.5,5.00,0.00,22.1,20.5,00.0,31.1,23.9,10.5,0000.8,0024.35,0018.73,0018.04
2022-12-01 02:20:00,,0821.5,5.00,0.00,22.1,21.1,00.0,31.1,24.0,10.5,0001.0,0023.79,0018.37,0017.70
2022-12-01 02:21:00,,0821.4,5.00,0.00,22.2,21.8,00.0,31.1,24.2,10.4,0001.1,0023.07,0017.96,0017.35
2022-12-01 02:22:00,,0821.4,4.99,0.00,22.3,22.0,00.0,31.1,24.3,10.3,0001.7,0022.21,0017.36,0016.79
2022-12-01 02:23:00,,0821.5,5.00,0.00,22.3,21.8,00.0,31.1,24.2,10.1,0001.6,0021.34,0016.52,0016.03
2022-12-01 02:24:00,,0821.4,5.00,0.00,22.3,21.6,00.0,31.2,24.2,10.1,0001.8,0020.13,0015.92,0015.45
2022-12-01 02:25:00,,0821.4,5.00,0.00,22.3,21.3,00.0,31.2,24.2,10.1,0001.6,0019.54,0015.58,0015.15
2022-12-01 02:26:00,,0821.4,4.99,0.00,22.3,21.2,00.0,31.2,24.2,10.0,0001.8,0018.91,0015.13,0014.73
2022-12-01 02:27:00,,0821.4,5.00,0.00,22.3,21.1,00.0,31.2,24.2,09.9,0001.7,0018.20,0014.56,0014.20
2022-12-01 02:28:00,,0821.4,5.01,0.00,22.3,21.1,00.0,31.2,24.1,09.8,0001.7,0017.75,0014.10,0013.72
2022-12-01 02:29:00,,0821.4,5.01,0.00,22.3,21.1,00.0,31.2,24.1,09.7,0001.0,0017.54,0013.70,0013.29
2022-12-01 02:30:00,,0821.4,4.99,0.00,22.3,21.1,00.0,31.2,24.1,09.8,0000.6,0017.54,0013.40,0013.01
2022-12-01 02:31:00,,0821.4,4.99,0.00,22.3,21.0,00.0,31.2,24.1,09.8,-000.2,0017.84,0013.19,0012.79
2022-12-01 02:32:00,,0821.4,5.01,0.00,22.3,21.0,00.0,31.2,24.1,09.9,-000.1,0018.36,0013.12,0012.69
2022-12-01 02:33:00,,0821.4,5.01,0.00,22.3,21.0,00.0,31.2,24.1,09.9,-000.5,0018.78,0013.33,0012.88
2022-12-01 02:34:00,,0821.4,4.99,0.00,22.3,21.0,00.0,31.2,24.1,10.0,-000.6,0019.03,0013.71,0013.24
2022-12-01 02:35:00,,0821.4,4.99,0.00,22.3,20.9,00.0,31.2,24.1,10.0,-000.5,0019.45,0014.07,0013.57
2022-12-01 02:36:00,,0821.4,5.00,0.00,22.3,20.9,00.0,31.2,24.1,10.0,-001.4,0019.91,0014.44,0013.89
2022-12-01 02:37:00,,0821.3,5.01,0.00,22.3,20.9,00.0,31.2,24.1,10.0,-001.4,0020.25,0014.75,0014.18
2022-12-01 02:38:00,,0821.2,4.99,0.00,22.3,21.3,00.0,31.1,24.2,10.0,-001.3,0020.55,0015.05,0014.47
2022-12-01 02:39:00,,0821.3,5.01,0.00,22.4,22.1,00.0,31.1,24.3,09.9,-001.3,0020.87,0015.40,0014.82
2022-12-01 02:40:00,,0821.4,5.00,0.00,22.5,22.3,00.0,31.2,24.5,09.9,-000.9,0021.07,0015.77,0015.20
2022-12-01 02:41:00,,0821.4,4.99,0.00,22.5,22.1,00.0,31.2,24.5,09.9,-000.4,0021.00,0016.05,0015.46
2022-12-01 02:42:00,,0821.4,5.01,0.00,22.5,21.8,00.0,31.3,24.4,09.9,0000.1,0020.67,0016.29,0015.70
2022-12-01 02:43:00,,0821.4,5.01,0.00,22.5,21.6,00.0,31.3,24.3,09.8,-000.2,0020.44,0016.55,0015.94
2022-12-01 02:44:00,,0821.4,5.01,0.00,22.4,21.5,00.0,31.3,24.3,09.9,-000.2,0020.94,0016.89,0016.25
2022-12-01 02:45:00,,0821.3,5.00,0.00,22.4,21.4,00.0,31.3,24.3,09.9,0000.4,0021.42,0017.23,0016.57
2022-12-01 02:46:00,,0821.2,5.00,0.00,22.4,21.3,00.0,31.3,24.3,09.9,0000.2,0021.81,0017.59,0016.95
2022-12-01 02:47:00,,0821.2,5.00,0.00,22.4,21.3,00.0,31.3,24.3,09.9,0000.6,0022.30,0018.02,0017.38
2022-12-01 02:48:00,,0821.3,5.00,0.00,22.4,21.2,00.0,31.3,24.3,10.0,0001.2,0022.92,0018.56,0017.92
2022-12-01 02:49:00,,0821.2,4.99,0.00,22.4,21.1,00.0,31.3,24.3,10.0,0000.9,0023.61,0019.20,0018.51
2022-12-01 02:50:00,,0821.1,4.99,0.00,22.4,20.9,00.0,31.3,24.2,10.0,0000.7,0024.67,0019.83,0019.11
2022-12-01 02:51:00,,0821.1,5.01,0.00,22.4,20.9,00.0,31.3,24.2,10.0,0000.3,0025.57,0020.45,0019.71
2022-12-01 02:52:00,,0821.1,5.01,0.00,22.4,20.9,00.0,31.3,24.2,10.0,0000.2,0026.19,0021.05,0020.33
2022-12-01 02:53:00,,0821.2,5.00,0.00,22.4,20.9,00.0,31.3,24.2,10.0,0000.3,0026.95,0021.63,0020.85
2022-12-01 02:54:00,,0821.2,4.98,0.00,22.3,20.9,00.0,31.3,24.1,10.0,0001.1,0027.40,0022.06,0021.28
2022-12-01 02:55:00,,0821.2,5.00,0.00,22.3,20.9,00.0,31.2,24.2,10.0,0001.6,0027.45,0022.32,0021.56
2022-12-01 02:56:00,,0821.1,5.00,0.00,22.3,20.9,00.0,31.2,24.1,10.0,0001.3,0027.90,0022.56,0021.80
2022-12-01 02:57:00,,0821.2,5.00,0.00,22.3,20.9,00.0,31.2,24.1,10.0,0001.2,0028.19,0022.84,0022.03
2022-12-01 02:58:00,,0821.1,5.01,0.00,22.3,21.2,00.0,31.2,24.2,10.0,0001.8,0028.35,0023.03,0022.22
2022-12-01 02:59:00,,0821.1,5.00,0.00,22.4,22.0,00.0,31.2,24.4,09.9,0001.8,0028.52,0023.18,0022.35
